THORAD DELTA 1 DEB, 8185

Orbit data source: Space-Track

THORAD DELTA 1 DEB, 8185 is space debris in SSO originally from a launch on Fri, 15 Nov 1974 UTC launched from the Air Force Western Test Range (AFWTR). Debris objects in space refer to the collection of defunct objects orbiting the Earth. Examples of debris include non-operational satellites, rocket bodies, and fragments generated from explosions, collisions, or faulty payload assembly.

Loading next visibility...
Identifier
8185, 1974-089BB
Orbit
SSO
Country
Flag of USUS
Related business
Manufacturer
Unknown
Mission
Spacecraft
Bus & Motor
Unknown
Mass
Unknown
Launch date (UTC)
1974-11-15 (51 years ago)
Launch vehicle
Unknown
Launch site
Air Force Western Test Range (AFWTR)
Object type
Payload
Rocket body
Debris
Shape & HBR
Unknown shape, 0.4 m
Radar Cross Section
Small (<0.1 m²)

Expand to show TLE details & history
Last TLE update: 15 hours ago

TLE from 15 hours ago
0 THORAD DELTA 1 DEB
1 08185U 74089BB  26123.22789288  .00000020  00000-0  45830-3 0  9995
2 08185 101.5391  45.2164 0068057 240.4793 290.1300 12.40512233329182
Epoch: 2026-05-03T05:28Z
TLE epoch observation values (Epoch: 2026-05-03T05:28:09.944Z)
Latitude
9.86942°
Longitude
-75.9339°
Altitude
1,488.125 km
Speed
7.129 km/s
True Right ascension
15h 08m 58s
True Declination
9° 49' 01"
Sunlit
Object was in full shadow at epoch
Visualization orbit readout
Latitude
Unknown
Longitude
Unknown
Altitude
Unknown
Speed
Unknown
Apparent Right ascension
Unknown
Apparent Declination
Unknown
Sunlit
N/A
Visualization observer readout
Local Sidereal Time
04:16:32
Azimuth
Unknown
Elevation
Unknown
Doppler factor
Unknown
Orbital elements
Apogee altitude
1,555.609 km
Perigee altitude
1,448.35 km
Semi-major axis
7,880.116 km
Eccentricity
0.00681
Inclination
101.5391°
RAAN
45.2164°
Arg. of periapsis
240.4793°
True anomaly
289.39563°
Mean anomaly
290.13°
Eccentric anomaly
289.76303°
Mean motion
3.10273 °/min
Orbital period
116.03 mins
BSTAR
0.0004583
Loading maneuver chart data...
Computing Atmospheric mass density...

Documentation

Showing up to 5 results
|